Location: Ferintosh
(52.7647°N, 112.9692°W)
Time: 18:37:26
(UTC+00:00)

Explorer 7 - Pass Details

Date: 28 May 2024
Orbit: 466 x 622 km, 50.3° (Epoch: 15 June)

Event Time Altitude Azimuth Distance (km) Brightness Sun altitude
Rises 05:36:15 0° 243° (WSW) 2,512 10.2 -11.7°
Reaches altitude 10° 05:38:25 10° 238° (WSW) 1,650 9.2 -11.9°
Maximum altitude 05:41:59 46° 164° (SSE) 668 6.8 -12.1°
Drops below altitude 10° 05:45:43 10° 91° (E) 1,722 9.1 -12.4°
Sets 05:48:01 0° 85° (E) 2,637 10.1 -12.5°
